Regional Weather Roundup
Issued by NWS

Home | Current Version | Previous Version | Graphics & Text | Print | Product List | Glossary On
Versions: 1 2 3 4 5 6 7 8 9 10 11 12 13 14 15 16 17 18 19 20 21 22 23 24 25 26 27 28 29 30 31 32 33 34 35 36 37 38 39 40 41 42 43 44 45 46 47 48 49 50
871
ASUS43 KDMX 071403
RWRIA

WEATHER ROUNDUP FOR IOWA
NATIONAL WEATHER SERVICE DES MOINES IA
800 AM CST SUN FEB 07 2016

NOTE: "FAIR" INDICATES FEW OR NO CLOUDS BELOW 12,000 FEET WITH NO
SIGNIFICANT WEATHER AND/OR OBSTRUCTIONS TO VISIBILITY.

* - THESE STATIONS ARE NOT NWS STATIONS...THUS NOT UNDER NWS
QUALITY CONTROL.  THEY ALSO DO NOT REPORT WEATHER SUCH
AS PRECIPITATION OR FOG.

IAZ001>003-012>014-020>022-031>034-043>046-071500-
   NORTHWEST IOWA

CITY           SKY/WX    TMP DP  RH WIND       PRES   REMARKS
CARROLL *      CLEAR     34  27  75 W21       29.88R WCI  22
CHEROKEE *     PTCLDY    34  27  75 W15G22    29.87R WCI  24
DENISON *      CLEAR     34  25  69 W13       29.90R WCI  25
LE MARS *      PTCLDY    36  28  75 W15       29.90S WCI  26
ORANGE CITY *  CLEAR     32  27  80 W15       29.87S WCI  22
SHELDON *      CLOUDY    34  27  75 W17       29.83R WCI  23
SIOUX CITY     PTCLDY    37  24  59 W13       29.92S WCI  29
SPENCER        MOCLDY    34  24  67 W23       29.82R WCI  22
STORM LAKE *   PTCLDY    30  28  93 W20       29.86R WCI  18
$$

IAZ055>058-069>071-079>083-090>094-071500-
   SOUTHWEST IOWA

CITY           SKY/WX    TMP DP  RH WIND       PRES   REMARKS
ATLANTIC *     CLOUDY    30  25  80 W9        29.93R WCI  22
AUDUBON *      CLOUDY    32  27  80 NW6       29.91S WCI  26
CLARINDA *     CLEAR     34  28  80 W9        29.99R WCI  26
COUNCIL BLFS * CLOUDY    37  25  60 NW21G28   29.95R WCI  27
CRESTON *      CLOUDY    34  28  80 W14       29.93R WCI  24
HARLAN  *      CLEAR     34  25  69 NW18      29.95R WCI  23
LAMONI         CLOUDY    33  28  81 W12       29.92R WCI  24
RED OAK *      CLEAR     34  27  75 SW6       29.96R WCI  29
SHENANDOAH *   CLEAR     32  30  93 SW8       30.00R WCI  25
$$

IAZ047>049-059>061-072>074-084-071500-
   CENTRAL IOWA

CITY           SKY/WX    TMP DP  RH WIND       PRES   REMARKS
AMES           CLEAR     34  26  72 W17       29.85R WCI  23
ANKENY *       CLEAR     36  28  75 W10G17    29.87R WCI  28
BOONE *        CLEAR     34  27  75 W13       29.84S WCI  25
CHARITON *     CLOUDY    36  28  75 W12G17    29.89S WCI  27
DES MOINES     MOCLDY    38  26  62 NW15      29.88R WCI  29
GRINNELL*      CLEAR     34  29  80 W10       29.84S WCI  26
KNOXVILLE *    CLEAR     36  28  75 W12       29.86S WCI  27
MARSHALLTOWN   CLEAR     34  26  72 W14       29.82S WCI  25
NEWTON *       CLEAR     34  30  86 W13       29.84F WCI  25
PELLA *        CLEAR     34  28  80 W9        29.88S WCI  26
$$

IAZ004>006-015-016-023>025-035-036-071500-
   NORTH CENTRAL IOWA

CITY           SKY/WX    TMP DP  RH WIND       PRES   REMARKS
ALGONA *       CLEAR     32  25  74 W15       29.79R WCI  22
CLARION *      CLEAR     28  23  80 W13       29.81R WCI  18
ESTHERVILLE    CLEAR     32  25  75 W24       29.78S WCI  19
FORT DODGE *   CLEAR     30  25  80 W7        29.84S WCI  23
MASON CITY     CLEAR     31  24  75 W20       29.77R WCI  19
FOREST CITY *    N/A     32  27  80 W10       29.76R WCI  24
WEBSTER CITY * CLEAR     28  25  86 W13       29.81S WCI  18
IOWA FALLS *     N/A     31  26  82 W17       29.82R WCI  20
$$

IAZ007>011-017>019-026>030-037>042-050>054-066-071500-
   NORTHEAST IOWA

CITY           SKY/WX    TMP DP  RH WIND       PRES   REMARKS
CEDAR RAPIDS   PTCLDY    34  30  85 W10       29.80S WCI  26
CHARLES CITY * CLEAR     30  28  93 W13       29.76S WCI  20
CLINTON *      CLOUDY    37  30  75 SW16      29.81F WCI  28
DECORAH *      CLEAR     32  28  86 W8        29.72S WCI  25
DUBUQUE        CLOUDY    33  28  81 SW14      29.76S WCI  23
MONTICELLO *   PTCLDY    36  30  80 W9        29.79S WCI  29
OELWEIN *      CLEAR     28  27  93 W13       29.77S WCI  18
WATERLOO       CLEAR     30  24  78 W10       29.79S WCI  21
$$

IAZ064-065-067-068-078-071500-
   EAST CENTRAL IOWA

CITY           SKY/WX    TMP DP  RH WIND       PRES   REMARKS
DAVENPORT      CLOUDY    37  28  70 SW14      29.81F WCI  28
IOWA CITY      CLOUDY    35  29  78 W9        29.84F WCI  28
MT. PLEASANT * CLOUDY    39  30  70 SW13      29.86F WCI  32
MUSCATINE *    MOCLDY    37  28  70 SW8G14    29.85F WCI  31
QUAD CITIES    CLOUDY    38  28  67 SW15      29.82F WCI  29
$$

IAZ062-063-075>077-085>089-095>099-071500-
   SOUTHEAST IOWA

CITY           SKY/WX    TMP DP  RH WIND       PRES   REMARKS
BURLINGTON     CLOUDY    37  29  72 SW13      29.86F WCI  29
FAIRFIELD *    CLOUDY    37  28  70 W10       29.86S WCI  30
FORT MADISON * PTCLDY    37  28  70 SW13G20   29.88F WCI  29
KEOKUK *       PTCLDY    39  28  65 SW14G20   29.88F WCI  31
OSKALOOSA *      N/A     34  30  86 W12       29.87R WCI  25
OTTUMWA        PTCLDY    36  28  73 W14       29.86S WCI  27
WASHINGTON *   CLOUDY    37  30  75 W12       29.86S WCI  30
$$

ABBREVIATIONS USED IN REMARKS
   TC - TEMPERATURES IN CELSIUS
  WCI - WIND CHILL INDEX
   HX - HEAT INDEX
  VSB - VISIBILITY
$$





USA.gov is the U.S. government's official web portal to all federal, state and local government web resources and services.